Andrews, TX

4:56 PM CST on December 07, 2019 (GMT -0600)
Andrews

Weather History for KE11 - October, 2019

Change the Weather History Date:

Tuesday, October 15, 2019

  Actual Average (KMAF) Record (KMAF)
Temperature  
Mean Temperature 70 °F -  
Max Temperature 82 °F 75 °F 94 °F (1962)
Min Temperature 56 °F 50 °F 36 °F (1966)
Cooling Degree Days 6    
Growing Degree Days 20 (Base 50)    
Moisture  
Dew Point 49 °F    
Average Humidity 52    
Maximum Humidity 94    
Minimum Humidity 18    
Precipitation  
Precipitation 0.00 in - - ()
Sea Level Pressure  
Sea Level Pressure 30.03 in    
Wind  
Wind Speed 8 mph ()    
Max Wind Speed 14 mph    
Max Gust Speed 22 mph    
Visibility 9.9 miles    
Events      
Averages and records for this station are not official NWS values.
T = Trace of Precipitation, MM = Missing Value Source: Averaged Metar Reports

Daily Weather History Graph

Daily Weather History Graph

Search for Another Location

Airport or City:

Astronomy

Oct. 15, 2019 Rise Set
Actual Time 7:53 AM CDT 7:17 PM CDT
Civil Twilight 7:28 AM CDT 7:42 PM CDT
Nautical Twilight 7:00 AM CDT 8:10 PM CDT
Astronomical Twilight 6:32 AM CDT 8:39 PM CDT
Moon 8:43 PM CDT (10/15) 9:23 AM CDT (10/15)
Length of Visible Light 12h 13m
Length of Day
11h 23m
Full, 97% of the Moon is Illuminated
Oct 15
Full
Oct 21
Last Quarter
Oct 27
New
Nov 4
First Quarter
Nov 12
Full

Hourly Weather History & Observations

Time (CDT) Temp. Dew Point Humidity Pressure Visibility Wind Dir Wind Speed Gust Speed Precip Events Conditions
12:15 AM 68.2 °F 59.5 °F 74% 30.00 in 10.0 mi SSW 9.2 mph - N/A   Clear
12:35 AM 68.9 °F 59.4 °F 72% 29.99 in 10.0 mi SSW 8.1 mph - N/A   Clear
12:55 AM 68.5 °F 59.4 °F 72% 29.99 in 10.0 mi SSW 9.2 mph - N/A   Clear
1:15 AM 68.2 °F 59.4 °F 73% 29.98 in 10.0 mi SSW 6.9 mph - N/A   Clear
1:35 AM 68.4 °F 59.4 °F 73% 29.98 in 10.0 mi SSW 8.1 mph - N/A   Clear
1:55 AM 68.0 °F 59.4 °F 74% 29.98 in 10.0 mi SSW 8.1 mph - N/A   Clear
2:15 AM 68.0 °F 59.4 °F 74% 29.98 in 10.0 mi SSW 8.1 mph - N/A   Clear
2:35 AM 68.2 °F 59.5 °F 74% 29.98 in 10.0 mi SSW 10.4 mph - N/A   Scattered Clouds
2:55 AM 68.2 °F 59.9 °F 75% 29.98 in 10.0 mi SSW 8.1 mph - N/A   Mostly Cloudy
3:15 AM 68.0 °F 59.9 °F 75% 29.98 in 10.0 mi SW 6.9 mph - N/A   Overcast
3:35 AM 67.3 °F 60.1 °F 78% 29.98 in 10.0 mi SSW 6.9 mph - N/A   Overcast
3:55 AM 66.6 °F 60.1 °F 80% 29.98 in 10.0 mi SSW 8.1 mph - N/A   Scattered Clouds
4:35 AM 65.1 °F 60.3 °F 84% 29.98 in 10.0 mi SW 6.9 mph - N/A   Clear
4:55 AM 64.8 °F 60.3 °F 85% 29.97 in 10.0 mi SW 5.8 mph - N/A   Clear
5:15 AM 64.4 °F 60.3 °F 86% 29.98 in 10.0 mi SW 5.8 mph - N/A   Clear
5:35 AM 63.5 °F 61.7 °F 94% 29.98 in 10.0 mi WSW 5.8 mph - N/A   Clear
5:55 AM 64.9 °F 60.4 °F 85% 29.98 in 10.0 mi West 4.6 mph - N/A   Clear
6:15 AM 64.4 °F 60.4 °F 87% 29.98 in 10.0 mi WSW 5.8 mph - N/A   Scattered Clouds
6:35 AM 64.4 °F 60.8 °F 88% 29.99 in 10.0 mi WSW 6.9 mph - N/A   Scattered Clouds
6:55 AM 63.9 °F 61.0 °F 90% 30.00 in 10.0 mi WSW 6.9 mph - N/A   Clear
7:15 AM 64.6 °F 60.8 °F 88% 30.00 in 10.0 mi West 8.1 mph - N/A   Clear
7:35 AM 64.9 °F 60.8 °F 86% 30.00 in 10.0 mi WSW 6.9 mph - N/A   Clear
7:55 AM 64.9 °F 60.8 °F 86% 30.01 in 10.0 mi WSW 8.1 mph - N/A   Clear
8:15 AM 64.8 °F 61.0 °F 88% 30.01 in 10.0 mi West 8.1 mph - N/A   Clear
8:35 AM 66.4 °F 60.8 °F 82% 30.02 in 10.0 mi WSW 6.9 mph - N/A   Scattered Clouds
8:55 AM 66.7 °F 60.3 °F 80% 30.02 in 10.0 mi West 6.9 mph - N/A   Scattered Clouds
9:15 AM 68.0 °F 59.9 °F 75% 30.04 in 10.0 mi WNW 5.8 mph - N/A   Clear
9:35 AM 69.3 °F 60.4 °F 73% 30.04 in 10.0 mi WNW 10.4 mph - N/A   Clear
9:55 AM 73.0 °F 59.2 °F 62% 30.04 in 10.0 mi WNW 10.4 mph - N/A   Clear
10:15 AM 72.3 °F 58.3 °F 61% 30.04 in 10.0 mi NW 8.1 mph - N/A   Clear
10:35 AM 75.7 °F 56.1 °F 50% 30.04 in 10.0 mi NNW 11.5 mph - N/A   Clear
10:55 AM 77.9 °F 53.4 °F 43% 30.04 in 10.0 mi NNW 10.4 mph - N/A   Clear
11:15 AM 77.5 °F 50.9 °F 39% 30.05 in 10.0 mi NNW 11.5 mph 16.1 mph N/A   Clear
11:35 AM 77.0 °F 52.0 °F 42% 30.05 in 10.0 mi NW 9.2 mph - N/A   Clear
11:55 AM 75.6 °F 52.3 °F 44% 30.05 in 10.0 mi WNW 10.4 mph - N/A   Clear
12:15 PM 76.1 °F 52.0 °F 43% 30.05 in 10.0 mi NW 8.1 mph - N/A   Clear
12:35 PM 77.5 °F 51.6 °F 40% 30.04 in 10.0 mi West 9.2 mph - N/A   Scattered Clouds
12:55 PM 77.7 °F 49.6 °F 37% 30.03 in 10.0 mi WNW 4.6 mph - N/A   Clear
1:15 PM 79.7 °F 49.6 °F 35% 30.03 in 10.0 mi NW 5.8 mph - N/A   Clear
1:35 PM 79.7 °F 49.5 °F 35% 30.03 in 10.0 mi WNW 4.6 mph - N/A   Clear
1:55 PM 80.8 °F 48.7 °F 33% 30.02 in 10.0 mi NNW 4.6 mph - N/A   Clear
2:15 PM 81.0 °F 48.0 °F 31% 30.02 in 10.0 mi Calm Calm - N/A   Clear
2:35 PM 82.0 °F 48.7 °F 31% 30.01 in 10.0 mi NW 4.6 mph - N/A   Clear
2:55 PM 82.6 °F 44.4 °F 26% 30.01 in 10.0 mi North 4.6 mph - N/A   Clear
3:15 PM 82.0 °F 41.2 °F 23% 30.00 in 10.0 mi North 6.9 mph - N/A   Clear
3:35 PM 82.6 °F 40.8 °F 23% 30.00 in 10.0 mi North 8.1 mph - N/A   Clear
3:55 PM 82.8 °F 38.3 °F 20% 30.00 in 10.0 mi North 5.8 mph - N/A   Clear
4:15 PM 82.6 °F 37.9 °F 20% 29.99 in 7.0 mi NNE 8.1 mph - N/A   Clear
4:35 PM 82.4 °F 37.2 °F 20% 29.99 in 10.0 mi NE 4.6 mph - N/A   Clear
4:55 PM 82.4 °F 38.3 °F 21% 30.00 in 10.0 mi NE 6.9 mph - N/A   Clear
5:15 PM 82.8 °F 37.8 °F 20% 30.00 in 10.0 mi ENE 9.2 mph - N/A   Clear
5:35 PM 80.6 °F 33.8 °F 18% 30.00 in 10.0 mi NE 11.5 mph - N/A   Clear
5:55 PM 80.1 °F 35.2 °F 20% 30.01 in 5.0 mi NE 10.4 mph 17.3 mph N/A   Haze
6:15 PM 79.9 °F 35.2 °F 20% 30.02 in 10.0 mi NE 13.8 mph 21.9 mph N/A   Clear
6:35 PM 77.9 °F 34.5 °F 21% 30.02 in 10.0 mi NE 12.7 mph 19.6 mph N/A   Clear
6:55 PM 75.4 °F 35.6 °F 24% 30.03 in 10.0 mi NNE 9.2 mph 18.4 mph N/A   Clear
7:15 PM 72.1 °F 35.8 °F 26% 30.04 in 10.0 mi NNE 10.4 mph - N/A   Clear
7:35 PM 70.0 °F 36.1 °F 29% 30.05 in 10.0 mi NNE 13.8 mph - N/A   Clear
7:55 PM 68.0 °F 36.7 °F 32% 30.07 in 10.0 mi NNE 10.4 mph - N/A   Clear
8:15 PM 66.2 °F 37.0 °F 34% 30.08 in 10.0 mi NNE 10.4 mph - N/A   Clear
8:35 PM 65.1 °F 37.0 °F 35% 30.09 in 10.0 mi NNE 10.4 mph - N/A   Clear
8:55 PM 63.9 °F 37.2 °F 37% 30.10 in 10.0 mi NNE 11.5 mph - N/A   Clear
9:15 PM 63.5 °F 36.7 °F 37% 30.11 in 10.0 mi NNE 11.5 mph - N/A   Clear
9:35 PM 62.6 °F 36.5 °F 38% 30.12 in 10.0 mi NNE 10.4 mph - N/A   Clear
9:55 PM 62.4 °F 36.0 °F 37% 30.13 in 10.0 mi NE 11.5 mph - N/A   Clear
10:15 PM 61.7 °F 35.6 °F 38% 30.14 in 10.0 mi NNE 11.5 mph - N/A   Clear
10:35 PM 61.2 °F 35.1 °F 38% 30.15 in 10.0 mi NE 12.7 mph 18.4 mph N/A   Scattered Clouds
11:15 PM 59.9 °F 34.0 °F 38% 30.18 in 10.0 mi NE 12.7 mph - N/A   Clear
11:35 PM 59.2 °F 33.4 °F 38% 30.19 in 10.0 mi NE 10.4 mph - N/A   Clear
11:55 PM 56.7 °F 33.8 °F 42% 30.20 in 10.0 mi NNE 8.1 mph - N/A   Clear